Starlink 3858

operational
NORAD ID: 52553 Int'l Des: 2022-051 Owner: SPXS Country: US Constellation: starlink
LEOCIRCULAR

Über Starlink 3858

Beschreibung wird geladen...

Live-Position

3D-Globus wird geladen...

Nächste Überflüge

Höhenverlauf

Altitude vs Time

uPlot chart will show altitude changes over time

Zweizeiliger Elementsatz

1 52553U 22051W 25347.65683575 .00001233 00000-0 95548-4 0 9990
2 52553 53.2166 154.9955 0001209 87.5037 272.6094 15.08835501198469
Epoch: 13. Dez. 2025 • Age: 20 hours

Aktueller Status

Höhe 557.4 km
Geschwindigkeit 7.58 km/s
Subsatellitenpunkt -49.10°S, 173.18°W
Startdatum 13. Mai 2022
Alter 3.5 years
Typ internet

Technische Details

Klassifizierung Payload
Masse 297.00 kg
Trockenmasse 275.00 kg
Gesamtmasse 297.00 kg
Länge 0.20 m
Durchmesser 2.80 m
Spannweite 9.00 m
Form Box + pan
Hersteller SPXS
Bus-Typ Starlink
Phasenstatus In Orbit
Besitzer/Staat SPXS/US

Große Konstellationen

Loading constellations...